START_TIME,STEP,MOV.,M35,t_acc.,PL05,t_acc.,PL06,t_acc.,PL07,t_acc.
1989-08-27T15:00:24.440 ,6,0,0.,4.8,1.,4.8,0.,4.8,0.,4.8
1989-08-27T15:00:29.240 ,6,0,0.,4.8,0.,4.8,0.,4.8,0.,4.8
1989-08-27T15:00:34.040 ,6,0,0.,4.8,1.,4.8,0.,4.8,0.,4.8
1989-08-27T15:00:38.840 ,6,0,0.,4.8,1.,4.8,0.,4.8,0.,4.8
1989-08-27T15:00:43.640 ,6,0,0.,4.8,1.,4.8,0.,4.8,0.,4.8
1989-08-27T15:00:48.440 ,7,0,0.,4.8,1.,4.8,0.,4.8,0.,4.8
1989-08-27T15:00:53.240 ,7,0,0.,4.8,1.,4.8,0.,4.8,0.,4.8
1989-08-27T15:00:58.040 ,7,0,0.,4.8,1.,4.8,0.,4.8,0.,4.8
1989-08-27T15:01:02.840 ,7,0,0.,4.8,1.,4.8,0.,4.8,0.,4.8
1989-08-27T15:01:07.640 ,7,0,0.,4.8,2.,4.8,0.,4.8,0.,4.8
1989-08-27T15:01:12.440 ,7,0,0.,4.8,2.,4.8,0.,4.8,0.,4.8
1989-08-27T15:01:17.240 ,7,0,0.,4.8,1.,4.8,2.,4.8,0.,4.8
1989-08-27T15:01:22.040 ,7,0,0.,4.8,1.,4.8,0.,4.8,1.,4.8
1989-08-27T15:01:26.840 ,7,0,0.,4.8,1.,4.8,0.,4.8,0.,4.8
1989-08-27T15:01:31.640 ,7,0,0.,4.8,0.,4.8,0.,4.8,0.,4.8
1989-08-27T15:01:36.440 ,7,0,0.,4.8,0.,4.8,0.,4.8,0.,4.8
1989-08-27T15:01:41.240 ,7,0,0.,4.8,2.,4.8,0.,4.8,0.,4.8
1989-08-27T15:01:46.040 ,7,0,0.,4.8,1.,4.8,0.,4.8,0.,4.8
1989-08-27T15:01:50.840 ,7,0,0.,4.8,1.,4.8,0.,4.8,1.,4.8
1989-08-27T15:01:55.640 ,7,0,0.,4.8,2.,4.8,0.,4.8,0.,4.8
1989-08-27T15:02:00.440 ,7,0,0.,4.8,0.,4.8,0.,4.8,0.,4.8
1989-08-27T15:02:05.240 ,7,0,0.,4.8,1.,4.8,0.,4.8,0.,4.8
1989-08-27T15:02:10.040 ,7,0,0.,4.8,1.,4.8,0.,4.8,0.,4.8
1989-08-27T15:02:14.840 ,7,0,0.,4.8,1.,4.8,0.,4.8,0.,4.8
1989-08-27T15:02:19.640 ,7,0,0.,4.8,1.,4.8,0.,4.8,0.,4.8
1989-08-27T15:02:24.440 ,6,0,0.,4.8,2.,4.8,0.,4.8,0.,4.8
1989-08-27T15:02:29.240 ,6,0,0.,4.8,0.,4.8,1.,4.8,0.,4.8
1989-08-27T15:02:34.040 ,6,0,0.,4.8,2.,4.8,0.,4.8,0.,4.8
1989-08-27T15:02:38.840 ,6,0,0.,4.8,0.,4.8,0.,4.8,0.,4.8
1989-08-27T15:02:43.640 ,6,0,0.,4.8,2.,4.8,0.,4.8,0.,4.8
1989-08-27T15:02:48.440 ,6,0,0.,4.8,0.,4.8,0.,4.8,1.,4.8
1989-08-27T15:02:53.240 ,6,0,0.,4.8,1.,4.8,0.,4.8,0.,4.8
1989-08-27T15:02:58.040 ,6,0,0.,4.8,0.,4.8,0.,4.8,0.,4.8
1989-08-27T15:03:02.840 ,6,0,0.,4.8,1.,4.8,0.,4.8,0.,4.8
1989-08-27T15:03:07.640 ,6,0,0.,4.8,1.,4.8,0.,4.8,0.,4.8
1989-08-27T15:03:12.440 ,5,0,0.,4.8,1.,4.8,0.,4.8,0.,4.8
1989-08-27T15:03:17.240 ,5,0,0.,4.8,0.,4.8,0.,4.8,0.,4.8
1989-08-27T15:03:22.040 ,5,0,0.,4.8,0.,4.8,0.,4.8,0.,4.8
1989-08-27T15:03:26.840 ,5,0,0.,4.8,0.,4.8,0.,4.8,0.,4.8
1989-08-27T15:03:31.640 ,5,0,0.,4.8,1.,4.8,1.,4.8,0.,4.8
1989-08-27T15:03:36.440 ,5,0,0.,4.8,1.,4.8,1.,4.8,0.,4.8
1989-08-27T15:03:41.240 ,5,0,0.,4.8,0.,4.8,0.,4.8,0.,4.8
1989-08-27T15:03:46.040 ,5,0,0.,4.8,0.,4.8,0.,4.8,0.,4.8
1989-08-27T15:03:50.840 ,5,0,0.,4.8,2.,4.8,0.,4.8,0.,4.8
1989-08-27T15:03:55.640 ,5,0,0.,4.8,2.,4.8,0.,4.8,2.,4.8
1989-08-27T15:04:00.440 ,4,0,0.,4.8,1.,4.8,0.,4.8,0.,4.8
1989-08-27T15:04:05.240 ,4,0,0.,4.8,0.,4.8,0.,4.8,0.,4.8
1989-08-27T15:04:10.040 ,4,0,0.,4.8,1.,4.8,0.,4.8,0.,4.8
1989-08-27T15:04:14.840 ,4,0,0.,4.8,0.,4.8,0.,4.8,0.,4.8
1989-08-27T15:04:19.640 ,4,0,0.,4.8,1.,4.8,0.,4.8,0.,4.8
1989-08-27T15:04:24.440 ,4,0,0.,4.8,0.,4.8,0.,4.8,0.,4.8
1989-08-27T15:04:29.240 ,4,0,0.,4.8,0.,4.8,1.,4.8,1.,4.8
1989-08-27T15:04:34.040 ,4,0,0.,4.8,1.,4.8,0.,4.8,0.,4.8
1989-08-27T15:04:38.840 ,4,0,0.,4.8,1.,4.8,0.,4.8,0.,4.8
1989-08-27T15:04:43.640 ,4,0,0.,4.8,1.,4.8,1.,4.8,0.,4.8
1989-08-27T15:04:48.440 ,3,0,0.,4.8,0.,4.8,0.,4.8,0.,4.8
1989-08-27T15:04:53.240 ,3,0,0.,4.8,1.,4.8,0.,4.8,0.,4.8
1989-08-27T15:04:58.040 ,3,0,0.,4.8,2.,4.8,0.,4.8,0.,4.8
1989-08-27T15:05:02.840 ,3,0,0.,4.8,0.,4.8,0.,4.8,0.,4.8
1989-08-27T15:05:07.640 ,3,0,0.,4.8,0.,4.8,0.,4.8,0.,4.8
1989-08-27T15:05:12.440 ,3,0,0.,4.8,2.,4.8,0.,4.8,0.,4.8
1989-08-27T15:05:17.240 ,3,0,0.,4.8,2.,4.8,0.,4.8,0.,4.8
1989-08-27T15:05:22.040 ,3,0,0.,4.8,1.,4.8,0.,4.8,0.,4.8
1989-08-27T15:05:26.840 ,3,0,0.,4.8,0.,4.8,0.,4.8,0.,4.8
1989-08-27T15:05:31.640 ,3,0,0.,4.8,0.,4.8,0.,4.8,0.,4.8
1989-08-27T15:05:36.440 ,2,0,0.,4.8,2.,4.8,0.,4.8,0.,4.8
1989-08-27T15:05:41.240 ,2,0,0.,4.8,0.,4.8,0.,4.8,0.,4.8
1989-08-27T15:05:46.040 ,2,0,0.,4.8,1.,4.8,0.,4.8,0.,4.8
1989-08-27T15:05:50.840 ,2,0,0.,4.8,0.,4.8,0.,4.8,0.,4.8
1989-08-27T15:05:55.640 ,2,0,0.,4.8,1.,4.8,0.,4.8,0.,4.8
1989-08-27T15:06:00.440 ,2,0,0.,4.8,0.,4.8,0.,4.8,0.,4.8
1989-08-27T15:06:05.240 ,2,0,0.,4.8,1.,4.8,0.,4.8,0.,4.8
1989-08-27T15:06:10.040 ,2,0,0.,4.8,0.,4.8,0.,4.8,0.,4.8
1989-08-27T15:06:14.840 ,2,0,0.,4.8,1.,4.8,0.,4.8,0.,4.8
1989-08-27T15:06:19.640 ,2,0,0.,4.8,0.,4.8,0.,4.8,0.,4.8
1989-08-27T15:06:24.440 ,1,0,0.,4.8,0.,4.8,0.,4.8,0.,4.8
1989-08-27T15:06:29.240 ,1,0,0.,4.8,0.,4.8,0.,4.8,0.,4.8
1989-08-27T15:06:34.040 ,1,0,0.,4.8,2.,4.8,0.,4.8,0.,4.8
1989-08-27T15:06:38.840 ,1,0,0.,4.8,0.,4.8,0.,4.8,1.,4.8
1989-08-27T15:06:43.640 ,1,0,0.,4.8,2.,4.8,0.,4.8,0.,4.8
1989-08-27T15:06:48.440 ,1,0,0.,4.8,1.,4.8,1.,4.8,0.,4.8
1989-08-27T15:06:53.240 ,1,0,0.,4.8,0.,4.8,0.,4.8,0.,4.8
1989-08-27T15:06:58.040 ,1,0,0.,4.8,0.,4.8,0.,4.8,0.,4.8
1989-08-27T15:07:02.840 ,1,0,0.,4.8,1.,4.8,1.,4.8,0.,4.8
1989-08-27T15:07:07.640 ,1,0,0.,4.8,0.,4.8,0.,4.8,0.,4.8
1989-08-27T15:07:12.440 ,0,0,0.,4.8,1.,4.8,0.,4.8,0.,4.8
1989-08-27T15:07:17.240 ,0,0,0.,4.8,1.,4.8,0.,4.8,0.,4.8
1989-08-27T15:07:22.040 ,0,0,0.,4.8,0.,4.8,0.,4.8,0.,4.8
1989-08-27T15:07:26.840 ,0,0,0.,4.8,2.,4.8,0.,4.8,0.,4.8
1989-08-27T15:07:31.640 ,0,0,0.,4.8,0.,4.8,0.,4.8,0.,4.8
1989-08-27T15:07:36.440 ,0,0,0.,4.8,0.,4.8,0.,4.8,0.,4.8
1989-08-27T15:07:41.240 ,0,0,0.,4.8,0.,4.8,0.,4.8,0.,4.8
1989-08-27T15:07:46.040 ,0,0,0.,4.8,1.,4.8,0.,4.8,1.,4.8
1989-08-27T15:07:50.840 ,0,0,0.,4.8,1.,4.8,0.,4.8,0.,4.8
1989-08-27T15:07:55.640 ,0,0,0.,4.8,1.,4.8,0.,4.8,0.,4.8
1989-08-27T15:08:00.440 ,0,0,0.,4.8,2.,4.8,0.,4.8,0.,4.8
1989-08-27T15:08:05.240 ,0,0,0.,4.8,0.,4.8,0.,4.8,0.,4.8
1989-08-27T15:08:10.040 ,0,0,0.,4.8,0.,4.8,0.,4.8,0.,4.8
1989-08-27T15:08:14.840 ,0,0,0.,4.8,2.,4.8,0.,4.8,0.,4.8
1989-08-27T15:08:19.640 ,0,0,0.,4.8,0.,4.8,0.,4.8,0.,4.8
1989-08-27T15:08:24.440 ,0,0,0.,4.8,0.,4.8,0.,4.8,0.,4.8
1989-08-27T15:08:29.240 ,0,0,0.,4.8,2.,4.8,0.,4.8,0.,4.8
1989-08-27T15:08:34.040 ,0,0,0.,4.8,0.,4.8,1.,4.8,0.,4.8
1989-08-27T15:08:38.840 ,0,0,0.,4.8,1.,4.8,0.,4.8,0.,4.8
1989-08-27T15:08:43.640 ,0,0,0.,4.8,1.,4.8,0.,4.8,0.,4.8
1989-08-27T15:08:48.440 ,1,0,0.,4.8,1.,4.8,0.,4.8,0.,4.8
1989-08-27T15:08:53.240 ,1,0,0.,4.8,1.,4.8,0.,4.8,0.,4.8
1989-08-27T15:08:58.040 ,1,0,0.,4.8,0.,4.8,0.,4.8,0.,4.8
1989-08-27T15:09:02.840 ,1,0,0.,4.8,0.,4.8,0.,4.8,0.,4.8
1989-08-27T15:09:07.640 ,1,0,0.,4.8,1.,4.8,0.,4.8,0.,4.8
1989-08-27T15:09:12.440 ,1,0,0.,4.8,0.,4.8,0.,4.8,0.,4.8
1989-08-27T15:09:17.240 ,1,0,0.,4.8,2.,4.8,0.,4.8,0.,4.8
1989-08-27T15:09:22.040 ,1,0,0.,4.8,0.,4.8,0.,4.8,0.,4.8
1989-08-27T15:09:26.840 ,1,0,0.,4.8,1.,4.8,0.,4.8,1.,4.8
1989-08-27T15:09:31.640 ,1,0,0.,4.8,0.,4.8,0.,4.8,0.,4.8
1989-08-27T15:09:36.440 ,2,0,0.,4.8,1.,4.8,0.,4.8,0.,4.8
1989-08-27T15:09:41.240 ,2,0,0.,4.8,1.,4.8,0.,4.8,0.,4.8
1989-08-27T15:09:46.040 ,2,0,0.,4.8,1.,4.8,0.,4.8,0.,4.8
1989-08-27T15:09:50.840 ,2,0,0.,4.8,3.,4.8,0.,4.8,0.,4.8
1989-08-27T15:09:55.640 ,2,0,0.,4.8,0.,4.8,0.,4.8,0.,4.8
1989-08-27T15:10:00.440 ,2,0,0.,4.8,3.,4.8,0.,4.8,0.,4.8
1989-08-27T15:10:05.240 ,2,0,0.,4.8,1.,4.8,0.,4.8,0.,4.8
1989-08-27T15:10:10.040 ,2,0,0.,4.8,0.,4.8,0.,4.8,1.,4.8
1989-08-27T15:10:14.840 ,2,0,0.,4.8,1.,4.8,3.,4.8,0.,4.8
1989-08-27T15:10:19.640 ,2,0,0.,4.8,0.,4.8,1.,4.8,0.,4.8
1989-08-27T15:10:24.440 ,3,0,0.,4.8,1.,4.8,0.,4.8,0.,4.8
1989-08-27T15:10:29.240 ,3,0,0.,4.8,4.,4.8,1.,4.8,0.,4.8
1989-08-27T15:10:34.040 ,3,0,0.,4.8,0.,4.8,0.,4.8,0.,4.8
1989-08-27T15:10:38.840 ,3,0,0.,4.8,0.,4.8,0.,4.8,0.,4.8
1989-08-27T15:10:43.640 ,3,0,0.,4.8,0.,4.8,0.,4.8,0.,4.8
1989-08-27T15:10:48.440 ,3,0,0.,4.8,1.,4.8,0.,4.8,0.,4.8
1989-08-27T15:10:53.240 ,3,0,0.,4.8,0.,4.8,0.,4.8,0.,4.8
1989-08-27T15:10:58.040 ,3,0,0.,4.8,2.,4.8,0.,4.8,0.,4.8
1989-08-27T15:11:02.840 ,3,0,0.,4.8,1.,4.8,0.,4.8,0.,4.8
1989-08-27T15:11:07.640 ,3,0,0.,4.8,1.,4.8,0.,4.8,0.,4.8
1989-08-27T15:11:12.440 ,4,0,0.,4.8,0.,4.8,0.,4.8,1.,4.8
1989-08-27T15:11:17.240 ,4,0,0.,4.8,0.,4.8,1.,4.8,0.,4.8
1989-08-27T15:11:22.040 ,4,0,0.,4.8,0.,4.8,0.,4.8,0.,4.8
1989-08-27T15:11:26.840 ,4,0,0.,4.8,0.,4.8,0.,4.8,0.,4.8
1989-08-27T15:11:31.640 ,4,0,0.,4.8,2.,4.8,0.,4.8,1.,4.8
1989-08-27T15:11:36.440 ,4,0,0.,4.8,2.,4.8,0.,4.8,0.,4.8
1989-08-27T15:11:41.240 ,4,0,0.,4.8,2.,4.8,0.,4.8,0.,4.8
1989-08-27T15:11:46.040 ,4,0,0.,4.8,1.,4.8,0.,4.8,0.,4.8
1989-08-27T15:11:50.840 ,4,0,0.,4.8,0.,4.8,0.,4.8,0.,4.8
1989-08-27T15:11:55.640 ,4,0,0.,4.8,0.,4.8,0.,4.8,0.,4.8
1989-08-27T15:12:00.440 ,5,0,0.,4.8,0.,4.8,0.,4.8,0.,4.8
1989-08-27T15:12:05.240 ,5,0,0.,4.8,1.,4.8,0.,4.8,0.,4.8
1989-08-27T15:12:10.040 ,5,0,0.,4.8,1.,4.8,0.,4.8,0.,4.8
1989-08-27T15:12:14.840 ,5,0,0.,4.8,0.,4.8,2.,4.8,0.,4.8
1989-08-27T15:12:19.640 ,5,0,0.,4.8,0.,4.8,0.,4.8,0.,4.8
1989-08-27T15:12:24.440 ,5,0,0.,4.8,1.,4.8,1.,4.8,0.,4.8
1989-08-27T15:12:29.240 ,5,0,0.,4.8,0.,4.8,0.,4.8,0.,4.8
1989-08-27T15:12:34.040 ,5,0,0.,4.8,0.,4.8,0.,4.8,0.,4.8
1989-08-27T15:12:38.840 ,5,0,0.,4.8,2.,4.8,0.,4.8,0.,4.8
1989-08-27T15:12:43.640 ,5,0,0.,4.8,2.,4.8,1.,4.8,0.,4.8
1989-08-27T15:12:48.440 ,6,0,0.,4.8,0.,4.8,0.,4.8,0.,4.8
1989-08-27T15:12:53.240 ,6,0,0.,4.8,0.,4.8,0.,4.8,0.,4.8
1989-08-27T15:12:58.040 ,6,0,0.,4.8,1.,4.8,0.,4.8,0.,4.8
1989-08-27T15:13:02.840 ,6,0,0.,4.8,0.,4.8,0.,4.8,0.,4.8
1989-08-27T15:13:07.640 ,6,0,0.,4.8,0.,4.8,1.,4.8,0.,4.8
1989-08-27T15:13:12.440 ,6,0,0.,4.8,0.,4.8,1.,4.8,0.,4.8
1989-08-27T15:13:17.240 ,6,0,0.,4.8,0.,4.8,0.,4.8,0.,4.8
1989-08-27T15:13:22.040 ,6,0,0.,4.8,2.,4.8,0.,4.8,0.,4.8
1989-08-27T15:13:26.840 ,6,0,0.,4.8,1.,4.8,0.,4.8,0.,4.8
1989-08-27T15:13:31.640 ,6,0,0.,4.8,1.,4.8,0.,4.8,0.,4.8
1989-08-27T15:13:36.440 ,7,0,0.,4.8,3.,4.8,0.,4.8,0.,4.8
1989-08-27T15:13:41.240 ,7,0,0.,4.8,1.,4.8,0.,4.8,0.,4.8
1989-08-27T15:13:46.040 ,7,0,0.,4.8,0.,4.8,0.,4.8,1.,4.8
1989-08-27T15:13:50.840 ,7,0,0.,4.8,1.,4.8,0.,4.8,0.,4.8
1989-08-27T15:13:55.640 ,7,0,0.,4.8,0.,4.8,0.,4.8,1.,4.8
1989-08-27T15:14:00.440 ,7,0,0.,4.8,2.,4.8,0.,4.8,0.,4.8
1989-08-27T15:14:05.240 ,7,0,0.,4.8,0.,4.8,1.,4.8,0.,4.8
1989-08-27T15:14:10.040 ,7,0,0.,4.8,1.,4.8,0.,4.8,0.,4.8
1989-08-27T15:14:14.840 ,7,0,0.,4.8,0.,4.8,0.,4.8,0.,4.8
1989-08-27T15:14:19.640 ,7,0,0.,4.8,0.,4.8,0.,4.8,1.,4.8
1989-08-27T15:14:24.440 ,7,0,0.,4.8,0.,4.8,0.,4.8,0.,4.8
1989-08-27T15:14:29.240 ,7,0,0.,4.8,0.,4.8,0.,4.8,0.,4.8
1989-08-27T15:14:34.040 ,7,0,0.,4.8,1.,4.8,0.,4.8,0.,4.8
1989-08-27T15:14:38.840 ,7,0,0.,4.8,0.,4.8,0.,4.8,0.,4.8
1989-08-27T15:14:43.640 ,7,0,0.,4.8,0.,4.8,0.,4.8,0.,4.8
1989-08-27T15:14:48.440 ,7,0,0.,4.8,0.,4.8,1.,4.8,0.,4.8
1989-08-27T15:14:53.240 ,7,0,0.,4.8,1.,4.8,0.,4.8,0.,4.8
1989-08-27T15:14:58.040 ,7,0,0.,4.8,0.,4.8,0.,4.8,0.,4.8
1989-08-27T15:15:02.840 ,7,0,0.,4.8,0.,4.8,1.,4.8,0.,4.8
1989-08-27T15:15:07.640 ,7,0,0.,4.8,0.,4.8,0.,4.8,0.,4.8
1989-08-27T15:15:12.430 ,6,0,0.,4.8,0.,4.8,0.,4.8,0.,4.8
1989-08-27T15:15:17.230 ,6,0,0.,4.8,0.,4.8,0.,4.8,0.,4.8
1989-08-27T15:15:22.030 ,6,0,0.,4.8,0.,4.8,0.,4.8,0.,4.8
1989-08-27T15:15:26.830 ,6,0,0.,4.8,0.,4.8,0.,4.8,1.,4.8
1989-08-27T15:15:31.640 ,6,0,0.,4.8,0.,4.8,0.,4.8,0.,4.8
1989-08-27T15:15:36.430 ,6,0,0.,4.8,0.,4.8,0.,4.8,0.,4.8
1989-08-27T15:15:41.230 ,6,0,0.,4.8,1.,4.8,0.,4.8,0.,4.8
1989-08-27T15:15:46.030 ,6,0,0.,4.8,0.,4.8,0.,4.8,0.,4.8
1989-08-27T15:15:50.830 ,6,0,0.,4.8,0.,4.8,0.,4.8,0.,4.8
1989-08-27T15:15:55.640 ,6,0,0.,4.8,1.,4.8,0.,4.8,0.,4.8
1989-08-27T15:16:00.430 ,5,0,0.,4.8,0.,4.8,0.,4.8,0.,4.8
1989-08-27T15:16:05.230 ,5,0,0.,4.8,0.,4.8,0.,4.8,0.,4.8
1989-08-27T15:16:10.030 ,5,0,0.,4.8,1.,4.8,0.,4.8,0.,4.8
1989-08-27T15:16:14.830 ,5,0,0.,4.8,0.,4.8,0.,4.8,0.,4.8
1989-08-27T15:16:19.640 ,5,0,0.,4.8,0.,4.8,0.,4.8,0.,4.8
1989-08-27T15:16:24.430 ,5,0,0.,4.8,0.,4.8,1.,4.8,0.,4.8
1989-08-27T15:16:29.230 ,5,0,0.,4.8,0.,4.8,0.,4.8,0.,4.8
1989-08-27T15:16:34.030 ,5,0,0.,4.8,0.,4.8,0.,4.8,1.,4.8
1989-08-27T15:16:38.830 ,5,0,0.,4.8,3.,4.8,0.,4.8,0.,4.8
1989-08-27T15:16:43.640 ,5,0,0.,4.8,1.,4.8,0.,4.8,0.,4.8
1989-08-27T15:16:48.430 ,4,0,0.,4.8,1.,4.8,0.,4.8,0.,4.8
1989-08-27T15:16:53.230 ,4,0,0.,4.8,0.,4.8,0.,4.8,0.,4.8
1989-08-27T15:16:58.030 ,4,0,0.,4.8,4.,4.8,0.,4.8,0.,4.8
1989-08-27T15:17:02.830 ,4,0,0.,4.8,0.,4.8,0.,4.8,0.,4.8
1989-08-27T15:17:07.640 ,4,0,0.,4.8,0.,4.8,0.,4.8,0.,4.8
1989-08-27T15:17:12.440 ,4,0,0.,4.8,1.,4.8,0.,4.8,0.,4.8
1989-08-27T15:17:17.230 ,4,0,0.,4.8,2.,4.8,0.,4.8,0.,4.8
1989-08-27T15:17:22.040 ,4,0,0.,4.8,1.,4.8,0.,4.8,0.,4.8
1989-08-27T15:17:26.840 ,4,0,0.,4.8,3.,4.8,1.,4.8,1.,4.8
1989-08-27T15:17:31.640 ,4,0,0.,4.8,0.,4.8,0.,4.8,0.,4.8
1989-08-27T15:17:36.440 ,3,0,0.,4.8,1.,4.8,0.,4.8,1.,4.8
1989-08-27T15:17:41.230 ,3,0,0.,4.8,0.,4.8,0.,4.8,0.,4.8
1989-08-27T15:17:46.040 ,3,0,0.,4.8,1.,4.8,0.,4.8,1.,4.8
1989-08-27T15:17:50.840 ,3,0,0.,4.8,1.,4.8,0.,4.8,0.,4.8
1989-08-27T15:17:55.640 ,3,0,0.,4.8,1.,4.8,0.,4.8,0.,4.8
1989-08-27T15:18:00.440 ,3,0,0.,4.8,2.,4.8,0.,4.8,0.,4.8
1989-08-27T15:18:05.230 ,3,0,0.,4.8,0.,4.8,0.,4.8,0.,4.8
1989-08-27T15:18:10.040 ,3,0,0.,4.8,1.,4.8,0.,4.8,0.,4.8
1989-08-27T15:18:14.840 ,3,0,0.,4.8,0.,4.8,0.,4.8,0.,4.8
1989-08-27T15:18:19.640 ,3,0,0.,4.8,1.,4.8,0.,4.8,0.,4.8
1989-08-27T15:18:24.440 ,2,0,0.,4.8,0.,4.8,0.,4.8,0.,4.8
1989-08-27T15:18:29.230 ,2,0,0.,4.8,0.,4.8,0.,4.8,0.,4.8
1989-08-27T15:18:34.040 ,2,0,0.,4.8,0.,4.8,0.,4.8,0.,4.8
1989-08-27T15:18:38.840 ,2,0,0.,4.8,1.,4.8,0.,4.8,0.,4.8
1989-08-27T15:18:43.640 ,2,0,0.,4.8,0.,4.8,0.,4.8,0.,4.8
1989-08-27T15:18:48.440 ,2,0,0.,4.8,2.,4.8,0.,4.8,0.,4.8
1989-08-27T15:18:53.230 ,2,0,0.,4.8,1.,4.8,0.,4.8,0.,4.8
1989-08-27T15:18:58.040 ,2,0,0.,4.8,0.,4.8,1.,4.8,0.,4.8
1989-08-27T15:19:02.840 ,2,0,0.,4.8,1.,4.8,0.,4.8,0.,4.8
1989-08-27T15:19:07.640 ,2,0,0.,4.8,0.,4.8,0.,4.8,0.,4.8
1989-08-27T15:19:12.440 ,1,0,0.,4.8,1.,4.8,0.,4.8,0.,4.8
1989-08-27T15:19:17.230 ,1,0,0.,4.8,1.,4.8,1.,4.8,0.,4.8
1989-08-27T15:19:22.040 ,1,0,0.,4.8,1.,4.8,0.,4.8,0.,4.8
1989-08-27T15:19:26.840 ,1,0,0.,4.8,1.,4.8,0.,4.8,0.,4.8
1989-08-27T15:19:31.640 ,1,0,0.,4.8,0.,4.8,0.,4.8,0.,4.8
1989-08-27T15:19:36.440 ,1,0,0.,4.8,0.,4.8,0.,4.8,0.,4.8
1989-08-27T15:19:41.230 ,1,0,0.,4.8,3.,4.8,1.,4.8,0.,4.8
1989-08-27T15:19:46.040 ,1,0,0.,4.8,0.,4.8,0.,4.8,0.,4.8
1989-08-27T15:19:50.840 ,1,0,0.,4.8,1.,4.8,0.,4.8,0.,4.8
1989-08-27T15:19:55.640 ,1,0,0.,4.8,1.,4.8,1.,4.8,0.,4.8
1989-08-27T15:20:00.440 ,0,0,0.,4.8,0.,4.8,0.,4.8,0.,4.8
1989-08-27T15:20:05.230 ,0,0,0.,4.8,0.,4.8,0.,4.8,0.,4.8
1989-08-27T15:20:10.040 ,0,0,0.,4.8,2.,4.8,0.,4.8,0.,4.8
1989-08-27T15:20:14.840 ,0,0,0.,4.8,1.,4.8,0.,4.8,1.,4.8
1989-08-27T15:20:19.640 ,0,0,0.,4.8,2.,4.8,0.,4.8,1.,4.8
1989-08-27T15:20:24.440 ,0,0,0.,4.8,1.,4.8,1.,4.8,0.,4.8
1989-08-27T15:20:29.230 ,0,0,0.,4.8,1.,4.8,0.,4.8,0.,4.8
1989-08-27T15:20:34.040 ,0,0,0.,4.8,3.,4.8,0.,4.8,0.,4.8
1989-08-27T15:20:38.840 ,0,0,0.,4.8,0.,4.8,0.,4.8,0.,4.8
1989-08-27T15:20:43.640 ,0,0,0.,4.8,0.,4.8,0.,4.8,0.,4.8
1989-08-27T15:20:48.440 ,0,0,0.,4.8,0.,4.8,0.,4.8,0.,4.8
1989-08-27T15:20:53.230 ,0,0,0.,4.8,1.,4.8,0.,4.8,0.,4.8
1989-08-27T15:20:58.040 ,0,0,0.,4.8,0.,4.8,0.,4.8,0.,4.8
1989-08-27T15:21:02.840 ,0,0,0.,4.8,1.,4.8,0.,4.8,1.,4.8
1989-08-27T15:21:07.640 ,0,0,0.,4.8,1.,4.8,0.,4.8,0.,4.8
1989-08-27T15:21:12.440 ,0,0,0.,4.8,3.,4.8,0.,4.8,0.,4.8
1989-08-27T15:21:17.230 ,0,0,0.,4.8,0.,4.8,1.,4.8,0.,4.8
1989-08-27T15:21:22.040 ,0,0,0.,4.8,1.,4.8,0.,4.8,0.,4.8
1989-08-27T15:21:26.840 ,0,0,0.,4.8,2.,4.8,0.,4.8,0.,4.8
1989-08-27T15:21:31.640 ,0,0,0.,4.8,2.,4.8,0.,4.8,0.,4.8
1989-08-27T15:21:36.440 ,1,0,0.,4.8,2.,4.8,0.,4.8,0.,4.8
1989-08-27T15:21:41.230 ,1,0,0.,4.8,0.,4.8,0.,4.8,0.,4.8
1989-08-27T15:21:46.040 ,1,0,0.,4.8,0.,4.8,0.,4.8,0.,4.8
1989-08-27T15:21:50.840 ,1,0,0.,4.8,0.,4.8,0.,4.8,0.,4.8
1989-08-27T15:21:55.640 ,1,0,0.,4.8,0.,4.8,0.,4.8,0.,4.8
1989-08-27T15:22:00.440 ,1,0,0.,4.8,0.,4.8,0.,4.8,1.,4.8
1989-08-27T15:22:05.230 ,1,0,0.,4.8,0.,4.8,0.,4.8,0.,4.8
1989-08-27T15:22:10.040 ,1,0,0.,4.8,0.,4.8,1.,4.8,0.,4.8
1989-08-27T15:22:14.840 ,1,0,0.,4.8,0.,4.8,0.,4.8,0.,4.8
1989-08-27T15:22:19.640 ,1,0,0.,4.8,0.,4.8,0.,4.8,0.,4.8
1989-08-27T15:22:24.440 ,2,0,0.,4.8,0.,4.8,0.,4.8,0.,4.8
1989-08-27T15:22:29.230 ,2,0,0.,4.8,0.,4.8,1.,4.8,0.,4.8
1989-08-27T15:22:34.040 ,2,0,0.,4.8,0.,4.8,0.,4.8,0.,4.8
1989-08-27T15:22:38.840 ,2,0,0.,4.8,1.,4.8,0.,4.8,0.,4.8
1989-08-27T15:22:43.640 ,2,0,0.,4.8,1.,4.8,0.,4.8,0.,4.8
1989-08-27T15:22:48.440 ,2,0,0.,4.8,0.,4.8,0.,4.8,0.,4.8
1989-08-27T15:22:53.230 ,2,0,0.,4.8,0.,4.8,1.,4.8,0.,4.8
1989-08-27T15:22:58.040 ,2,0,0.,4.8,0.,4.8,0.,4.8,0.,4.8
1989-08-27T15:23:02.840 ,2,0,0.,4.8,1.,4.8,0.,4.8,0.,4.8
1989-08-27T15:23:07.640 ,2,0,0.,4.8,1.,4.8,0.,4.8,0.,4.8
1989-08-27T15:23:12.440 ,3,0,0.,4.8,1.,4.8,0.,4.8,0.,4.8
1989-08-27T15:23:17.230 ,3,0,0.,4.8,1.,4.8,1.,4.8,0.,4.8
1989-08-27T15:23:22.040 ,3,0,0.,4.8,1.,4.8,1.,4.8,0.,4.8
1989-08-27T15:23:26.840 ,3,0,0.,4.8,0.,4.8,0.,4.8,0.,4.8
1989-08-27T15:23:31.640 ,3,0,0.,4.8,1.,4.8,0.,4.8,0.,4.8
1989-08-27T15:23:36.440 ,3,0,0.,4.8,1.,4.8,0.,4.8,1.,4.8
1989-08-27T15:23:41.230 ,3,0,0.,4.8,0.,4.8,0.,4.8,0.,4.8
1989-08-27T15:23:46.040 ,3,0,0.,4.8,1.,4.8,1.,4.8,0.,4.8
1989-08-27T15:23:50.840 ,3,0,0.,4.8,0.,4.8,0.,4.8,0.,4.8
1989-08-27T15:23:55.640 ,3,0,0.,4.8,2.,4.8,0.,4.8,0.,4.8
1989-08-27T15:24:00.440 ,4,0,0.,4.8,1.,4.8,1.,4.8,1.,4.8
1989-08-27T15:24:05.230 ,4,0,0.,4.8,0.,4.8,0.,4.8,0.,4.8
1989-08-27T15:24:10.040 ,4,0,0.,4.8,0.,4.8,0.,4.8,0.,4.8
1989-08-27T15:24:14.840 ,4,0,0.,4.8,1.,4.8,0.,4.8,0.,4.8
1989-08-27T15:24:19.640 ,4,0,0.,4.8,1.,4.8,0.,4.8,0.,4.8
1989-08-27T15:24:24.440 ,4,0,0.,4.8,0.,4.8,0.,4.8,0.,4.8
1989-08-27T15:24:29.230 ,4,0,0.,4.8,0.,4.8,1.,4.8,0.,4.8
1989-08-27T15:24:34.040 ,4,0,0.,4.8,0.,4.8,2.,4.8,0.,4.8
1989-08-27T15:24:38.840 ,4,0,0.,4.8,0.,4.8,0.,4.8,0.,4.8
1989-08-27T15:24:43.640 ,4,0,0.,4.8,1.,4.8,0.,4.8,0.,4.8
1989-08-27T15:24:48.440 ,5,0,0.,4.8,0.,4.8,0.,4.8,0.,4.8
1989-08-27T15:24:53.230 ,5,0,0.,4.8,0.,4.8,0.,4.8,0.,4.8
1989-08-27T15:24:58.040 ,5,0,0.,4.8,2.,4.8,0.,4.8,0.,4.8
1989-08-27T15:25:02.840 ,5,0,0.,4.8,1.,4.8,0.,4.8,1.,4.8
1989-08-27T15:25:07.640 ,5,0,0.,4.8,2.,4.8,0.,4.8,0.,4.8
1989-08-27T15:25:12.440 ,5,0,0.,4.8,1.,4.8,1.,4.8,0.,4.8
1989-08-27T15:25:17.230 ,5,0,0.,4.8,1.,4.8,0.,4.8,0.,4.8
1989-08-27T15:25:22.040 ,5,0,0.,4.8,1.,4.8,0.,4.8,0.,4.8
1989-08-27T15:25:26.840 ,5,0,0.,4.8,1.,4.8,1.,4.8,0.,4.8
1989-08-27T15:25:31.640 ,5,0,0.,4.8,0.,4.8,0.,4.8,0.,4.8
1989-08-27T15:25:36.440 ,6,0,0.,4.8,0.,4.8,0.,4.8,0.,4.8
1989-08-27T15:25:41.230 ,6,0,0.,4.8,1.,4.8,0.,4.8,0.,4.8
1989-08-27T15:25:46.040 ,6,0,0.,4.8,1.,4.8,0.,4.8,0.,4.8
1989-08-27T15:25:50.840 ,6,0,0.,4.8,2.,4.8,0.,4.8,0.,4.8
1989-08-27T15:25:55.640 ,6,0,0.,4.8,1.,4.8,0.,4.8,0.,4.8
1989-08-27T15:26:00.440 ,6,0,0.,4.8,0.,4.8,0.,4.8,0.,4.8
1989-08-27T15:26:05.230 ,6,0,0.,4.8,0.,4.8,0.,4.8,0.,4.8
1989-08-27T15:26:10.040 ,6,0,0.,4.8,1.,4.8,0.,4.8,0.,4.8
1989-08-27T15:26:14.840 ,6,0,0.,4.8,1.,4.8,0.,4.8,0.,4.8
1989-08-27T15:26:19.640 ,6,0,0.,4.8,0.,4.8,0.,4.8,0.,4.8
1989-08-27T15:26:24.440 ,7,0,0.,4.8,0.,4.8,0.,4.8,0.,4.8
1989-08-27T15:26:29.230 ,7,0,0.,4.8,1.,4.8,0.,4.8,0.,4.8
1989-08-27T15:26:34.040 ,7,0,0.,4.8,0.,4.8,0.,4.8,0.,4.8
1989-08-27T15:26:38.840 ,7,0,0.,4.8,1.,4.8,0.,4.8,0.,4.8
1989-08-27T15:26:43.640 ,7,0,0.,4.8,0.,4.8,0.,4.8,0.,4.8
1989-08-27T15:26:48.440 ,7,0,0.,4.8,0.,4.8,0.,4.8,0.,4.8
1989-08-27T15:26:53.230 ,7,0,0.,4.8,0.,4.8,0.,4.8,1.,4.8
1989-08-27T15:26:58.040 ,7,0,0.,4.8,0.,4.8,0.,4.8,0.,4.8
1989-08-27T15:27:02.840 ,7,0,0.,4.8,0.,4.8,0.,4.8,0.,4.8
1989-08-27T15:27:07.640 ,7,0,0.,4.8,0.,4.8,0.,4.8,1.,4.8
1989-08-27T15:27:12.440 ,7,0,0.,4.8,1.,4.8,0.,4.8,0.,4.8
1989-08-27T15:27:17.230 ,7,0,0.,4.8,1.,4.8,0.,4.8,0.,4.8
1989-08-27T15:27:22.040 ,7,0,0.,4.8,0.,4.8,0.,4.8,0.,4.8
1989-08-27T15:27:26.840 ,7,0,0.,4.8,1.,4.8,0.,4.8,1.,4.8
1989-08-27T15:27:31.640 ,7,0,0.,4.8,0.,4.8,0.,4.8,0.,4.8
1989-08-27T15:27:36.440 ,7,0,0.,4.8,2.,4.8,0.,4.8,0.,4.8
1989-08-27T15:27:41.230 ,7,0,0.,4.8,0.,4.8,0.,4.8,1.,4.8
1989-08-27T15:27:46.040 ,7,0,0.,4.8,0.,4.8,0.,4.8,0.,4.8
1989-08-27T15:27:50.840 ,7,0,0.,4.8,0.,4.8,0.,4.8,0.,4.8
1989-08-27T15:27:55.640 ,7,0,0.,4.8,0.,4.8,0.,4.8,0.,4.8
1989-08-27T15:28:00.430 ,6,0,0.,4.8,0.,4.8,0.,4.8,0.,4.8
1989-08-27T15:28:05.230 ,6,0,0.,4.8,1.,4.8,0.,4.8,0.,4.8
1989-08-27T15:28:10.030 ,6,0,0.,4.8,0.,4.8,0.,4.8,0.,4.8
1989-08-27T15:28:14.830 ,6,0,0.,4.8,1.,4.8,0.,4.8,0.,4.8
1989-08-27T15:28:19.630 ,6,0,0.,4.8,0.,4.8,0.,4.8,0.,4.8
1989-08-27T15:28:24.430 ,6,0,0.,4.8,0.,4.8,0.,4.8,0.,4.8
1989-08-27T15:28:29.230 ,6,0,0.,4.8,0.,4.8,0.,4.8,0.,4.8
1989-08-27T15:28:34.030 ,6,0,0.,4.8,0.,4.8,0.,4.8,0.,4.8
1989-08-27T15:28:38.830 ,6,0,0.,4.8,1.,4.8,0.,4.8,0.,4.8
1989-08-27T15:28:43.630 ,6,0,0.,4.8,1.,4.8,0.,4.8,0.,4.8
1989-08-27T15:28:48.430 ,5,0,0.,4.8,2.,4.8,0.,4.8,0.,4.8
1989-08-27T15:28:53.230 ,5,0,0.,4.8,1.,4.8,1.,4.8,0.,4.8
1989-08-27T15:28:58.030 ,5,0,0.,4.8,0.,4.8,0.,4.8,1.,4.8
1989-08-27T15:29:02.830 ,5,0,0.,4.8,0.,4.8,0.,4.8,0.,4.8
1989-08-27T15:29:07.630 ,5,0,0.,4.8,0.,4.8,0.,4.8,0.,4.8
1989-08-27T15:29:12.430 ,5,0,0.,4.8,0.,4.8,0.,4.8,0.,4.8
1989-08-27T15:29:17.230 ,5,0,0.,4.8,0.,4.8,0.,4.8,0.,4.8
1989-08-27T15:29:22.030 ,5,0,0.,4.8,3.,4.8,0.,4.8,0.,4.8
1989-08-27T15:29:26.830 ,5,0,0.,4.8,0.,4.8,0.,4.8,0.,4.8
1989-08-27T15:29:31.630 ,5,0,0.,4.8,1.,4.8,0.,4.8,1.,4.8
1989-08-27T15:29:36.430 ,4,0,0.,4.8,0.,4.8,0.,4.8,1.,4.8
1989-08-27T15:29:41.230 ,4,0,0.,4.8,0.,4.8,0.,4.8,0.,4.8
1989-08-27T15:29:46.030 ,4,0,0.,4.8,1.,4.8,0.,4.8,0.,4.8
1989-08-27T15:29:50.830 ,4,0,0.,4.8,0.,4.8,0.,4.8,0.,4.8
1989-08-27T15:29:55.630 ,4,0,0.,4.8,0.,4.8,0.,4.8,0.,4.8
1989-08-27T15:30:00.430 ,4,0,0.,4.8,0.,4.8,0.,4.8,0.,4.8
1989-08-27T15:30:05.230 ,4,0,0.,4.8,0.,4.8,1.,4.8,0.,4.8
1989-08-27T15:30:10.030 ,4,0,0.,4.8,1.,4.8,0.,4.8,1.,4.8
1989-08-27T15:30:14.830 ,4,0,0.,4.8,2.,4.8,0.,4.8,0.,4.8
1989-08-27T15:30:19.630 ,4,0,0.,4.8,0.,4.8,1.,4.8,0.,4.8
1989-08-27T15:30:24.430 ,3,0,0.,4.8,1.,4.8,0.,4.8,0.,4.8
1989-08-27T15:30:29.230 ,3,0,0.,4.8,2.,4.8,0.,4.8,0.,4.8
1989-08-27T15:30:34.030 ,3,0,0.,4.8,0.,4.8,0.,4.8,0.,4.8
1989-08-27T15:30:38.830 ,3,0,0.,4.8,2.,4.8,0.,4.8,0.,4.8
1989-08-27T15:30:43.630 ,3,0,0.,4.8,0.,4.8,1.,4.8,0.,4.8
1989-08-27T15:30:48.430 ,3,0,0.,4.8,1.,4.8,0.,4.8,0.,4.8
1989-08-27T15:30:53.230 ,3,0,0.,4.8,1.,4.8,0.,4.8,0.,4.8
1989-08-27T15:30:58.030 ,3,0,0.,4.8,0.,4.8,0.,4.8,0.,4.8
1989-08-27T15:31:02.830 ,3,0,0.,4.8,1.,4.8,2.,4.8,0.,4.8
1989-08-27T15:31:07.630 ,3,0,0.,4.8,0.,4.8,1.,4.8,0.,4.8
1989-08-27T15:31:12.430 ,2,0,0.,4.8,1.,4.8,0.,4.8,0.,4.8
1989-08-27T15:31:17.230 ,2,0,0.,4.8,0.,4.8,0.,4.8,0.,4.8
1989-08-27T15:31:22.030 ,2,0,0.,4.8,0.,4.8,0.,4.8,0.,4.8
1989-08-27T15:31:26.830 ,2,0,0.,4.8,0.,4.8,0.,4.8,0.,4.8
1989-08-27T15:31:31.630 ,2,0,0.,4.8,0.,4.8,0.,4.8,0.,4.8
1989-08-27T15:31:36.430 ,2,0,0.,4.8,0.,4.8,0.,4.8,0.,4.8
1989-08-27T15:31:41.230 ,2,0,0.,4.8,0.,4.8,0.,4.8,0.,4.8
1989-08-27T15:31:46.030 ,2,0,0.,4.8,1.,4.8,0.,4.8,0.,4.8
1989-08-27T15:31:50.830 ,2,0,0.,4.8,0.,4.8,0.,4.8,0.,4.8
1989-08-27T15:31:55.630 ,2,0,0.,4.8,1.,4.8,0.,4.8,0.,4.8
1989-08-27T15:32:00.430 ,1,0,0.,4.8,0.,4.8,1.,4.8,0.,4.8
1989-08-27T15:32:05.230 ,1,0,0.,4.8,2.,4.8,1.,4.8,0.,4.8
1989-08-27T15:32:10.030 ,1,0,0.,4.8,1.,4.8,1.,4.8,0.,4.8
1989-08-27T15:32:14.830 ,1,0,0.,4.8,1.,4.8,1.,4.8,0.,4.8
1989-08-27T15:32:19.630 ,1,0,0.,4.8,0.,4.8,0.,4.8,0.,4.8
1989-08-27T15:32:24.430 ,1,0,0.,4.8,2.,4.8,0.,4.8,0.,4.8
1989-08-27T15:32:29.230 ,1,0,0.,4.8,0.,4.8,0.,4.8,0.,4.8
1989-08-27T15:32:34.030 ,1,0,0.,4.8,0.,4.8,0.,4.8,0.,4.8
1989-08-27T15:32:38.830 ,1,0,0.,4.8,1.,4.8,0.,4.8,0.,4.8
1989-08-27T15:32:43.630 ,1,0,0.,4.8,1.,4.8,0.,4.8,1.,4.8
1989-08-27T15:32:48.430 ,0,0,0.,4.8,0.,4.8,0.,4.8,0.,4.8
1989-08-27T15:32:53.230 ,0,0,0.,4.8,0.,4.8,0.,4.8,0.,4.8
1989-08-27T15:32:58.030 ,0,0,0.,4.8,4.,4.8,0.,4.8,0.,4.8
1989-08-27T15:33:02.830 ,0,0,0.,4.8,0.,4.8,0.,4.8,0.,4.8
1989-08-27T15:33:07.630 ,0,0,0.,4.8,2.,4.8,0.,4.8,0.,4.8
1989-08-27T15:33:12.430 ,0,0,0.,4.8,0.,4.8,0.,4.8,0.,4.8
1989-08-27T15:33:17.230 ,0,0,0.,4.8,0.,4.8,0.,4.8,0.,4.8